GFSMA_2pvu_pres_051.txt.gz
Presure
169 110 108 113 168 143 97 99 94 95 84 95 85 89 84 85 86 115 202 125 152 117 165 99 97 94 109 110 97 104 107 104 114 102 205 203 199 189 188 192 185 194 193
125 102 155 108 200 216 186 100 94 95 91 91 88 88 89 88 156 153 209 143 132 199 229 106 110 93 118 120 112 111 107 114 202 102 201 200 193 192 186 186 188 195 193
228 111 111 107 108 115 150 216 91 99 91 89 89 86 89 100 99 114 222 219 224 221 148 214 132 117 114 124 108 107 219 113 206 205 199 196 192 189 193 198 193 199 194
103 103 110 150 212 99 83 166 123 101 87 88 87 93 100 97 101 106 172 211 115 89 193 93 85 105 192 124 109 204 207 207 93 114 199 195 175 179 199 195 195 195 194
159 98 121 105 109 167 110 109 110 105 90 142 103 102 101 98 97 100 119 122 127 114 99 91 144 104 193 111 203 160 205 203 106 200 182 177 190 204 203 204 201 195 193
196 140 191 101 206 103 102 105 96 108 94 94 101 93 104 92 96 95 105 195 179 184 147 167 198 192 208 161 164 187 191 161 179 207 196 185 183 183 193 197 193 192 194
235 211 251 95 131 101 102 102 103 102 106 92 91 90 100 99 105 133 192 192 192 96 92 185 183 98 130 117 179 169 187 186 179 176 180 189 190 188 191 184 193 194 196
204 205 174 188 225 118 163 95 91 90 90 117 96 93 102 102 202 209 196 194 192 136 92 99 100 181 182 188 185 179 181 181 179 183 184 180 188 185 184 182 185 193 203
158 213 192 197 239 156 107 102 106 102 182 236 173 99 103 223 218 241 237 157 90 120 172 188 181 184 182 184 187 188 188 184 187 192 184 181 185 187 187 183 186 194 202
221 187 210 204 234 207 140 205 225 215 216 221 230 236 229 239 117 132 95 86 121 187 196 191 187 183 182 180 182 186 184 170 187 185 186 183 186 189 189 186 190 195 203
203 198 209 219 233 241 229 227 231 219 215 225 254 184 179 234 227 135 169 217 213 214 207 202 184 194 188 184 186 190 185 189 189 185 186 187 190 192 190 185 190 195 202
197 211 216 210 220 244 234 234 236 230 210 211 210 251 249 108 152 226 197 225 214 165 222 216 215 207 203 196 197 198 197 195 195 193 189 192 191 193 189 191 198 197 201
216 201 208 204 230 235 240 233 241 231 227 244 252 232 180 241 236 208 230 231 224 220 220 217 220 221 215 212 202 199 199 194 195 196 193 192 193 192 196 195 200 204 206
221 201 206 217 236 228 198 232 129 111 228 253 256 212 246 241 236 215 226 229 223 222 219 216 217 219 217 212 206 208 205 202 201 200 202 201 202 198 196 202 204 206 208
203 200 213 230 227 237 239 232 226 225 229 263 254 250 245 241 236 229 225 228 231 226 220 220 219 217 219 218 215 215 212 211 210 210 210 214 209 203 201 203 207 214 220
144 233 228 232 235 237 238 230 226 227 226 271 258 244 238 234 234 231 227 225 219 221 223 218 221 221 219 219 219 217 217 217 221 188 173 196 205 205 203 211 220 298 306
228 229 235 231 233 236 238 226 224 231 221 254 256 252 242 236 233 228 228 227 226 226 223 224 228 229 226 225 223 225 229 231 230 220 207 204 209 187 218 282 303 268 228
235 235 230 230 230 235 229 223 214 222 224 231 254 257 248 242 236 232 229 227 225 225 231 227 227 230 231 231 235 236 233 227 202 207 211 208 220 309 305 261 222 230 175
242 237 230 228 227 231 227 215 208 222 227 219 248 248 251 244 238 235 230 227 225 226 230 235 234 236 236 235 235 221 201 205 210 218 229 285 302 248 217 231 262 420 415
227 223 223 227 223 223 219 218 220 219 228 241 240 244 246 249 247 236 229 226 222 223 225 227 228 233 234 204 205 209 211 220 237 300 299 231 222 229 332 412 399 397 387
209 214 217 222 219 220 143 219 211 208 241 246 240 244 246 245 242 240 229 220 219 219 227 232 211 202 206 210 214 225 247 306 271 242 238 239 311 405 390 385 380 376 364
208 222 214 220 218 212 206 221 214 226 236 236 240 246 242 241 238 224 223 223 232 230 198 204 204 212 218 228 273 297 259 253 234 260 387 395 386 371 363 361 355 349 335
212 210 220 222 215 207 215 214 238 237 240 243 240 232 226 222 219 223 227 198 200 205 212 215 223 247 257 287 267 252 235 269 402 388 381 374 359 349 346 342 344 344 335
216 221 219 214 202 215 227 224 237 242 240 224 218 216 221 221 205 193 198 208 206 219 231 270 283 278 258 249 257 265 353 395 378 364 363 356 337 331 332 330 336 333 328
226 203 209 211 219 227 236 246 235 218 215 217 201 196 189 194 205 204 212 224 238 266 274 263 252 237 257 266 384 395 382 372 358 357 378 377 368 363 354 351 364 371 367
213 205 216 229 241 247 238 215 213 215 202 190 198 199 202 208 219 227 248 271 266 251 233 236 251 262 289 389 380 370 366 361 363 357 367 359 387 370 471 412 418 430 346

GFSMA_2pvu_pres_054.txt.gz
Presure
117 145 192 104 146 237 174 156 230 122 228 102 105 95 89 95 92 89 90 87 89 190 228 110 107 189 235 102 161 229 101 154 118 120 112 107 181 220 206 151 202 197 190
95 100 171 109 127 109 180 151 120 222 226 101 98 97 93 96 90 87 86 89 98 97 102 106 129 221 90 91 221 214 136 125 107 130 225 117 149 198 150 201 183 194 191
217 96 103 107 227 216 212 114 110 108 221 218 97 90 93 93 91 91 87 92 104 98 102 83 113 196 145 93 117 91 114 121 104 122 214 204 120 136 206 203 197 195 182
235 223 94 211 202 220 215 107 116 106 105 112 94 114 95 88 94 91 96 104 97 93 88 102 100 113 133 123 180 142 201 202 182 215 213 212 208 204 201 197 184 179 176
226 221 208 217 115 161 101 190 170 111 152 152 96 160 88 99 91 100 110 96 100 95 90 104 103 195 198 199 94 141 116 192 156 110 183 183 181 192 188 184 192 187 191
219 137 220 217 221 105 105 97 109 109 111 140 135 179 108 109 96 89 86 93 100 100 97 198 202 197 193 191 93 134 193 129 191 178 191 182 180 174 185 176 181 184 178
218 206 203 103 219 213 107 110 221 94 99 105 102 104 96 103 104 103 90 96 240 148 102 111 219 207 205 99 179 100 192 191 188 185 178 191 188 184 183 182 181 182 186
220 218 222 215 215 189 220 194 206 205 109 91 148 106 98 91 90 99 97 98 132 127 215 204 213 215 84 102 102 198 195 168 188 183 184 182 181 188 185 179 175 186 189
206 205 211 214 209 152 211 203 201 211 140 100 103 97 94 101 105 106 211 208 224 220 227 220 240 89 150 231 221 200 195 194 194 191 187 182 184 181 181 183 183 185 187
203 203 201 195 193 175 203 201 199 213 116 103 247 219 110 100 100 192 162 216 117 156 232 231 107 236 218 222 222 215 213 203 197 194 193 193 193 190 190 191 186 186 188
198 204 210 222 88 207 97 213 195 198 177 189 200 246 240 243 218 232 218 209 213 256 112 236 233 233 229 225 224 226 225 221 217 209 205 202 202 196 195 195 193 193 193
198 203 207 221 209 220 199 209 207 210 221 216 221 238 239 231 233 278 270 226 180 223 203 152 238 147 230 229 228 230 225 224 220 218 220 216 214 212 204 196 195 196 192
198 203 206 217 221 210 212 211 200 209 206 208 233 242 240 232 238 212 234 86 252 246 248 247 249 241 235 233 229 228 226 224 224 224 220 222 221 218 216 207 209 208 209
205 209 225 226 230 224 220 207 215 220 204 212 234 238 109 201 211 234 253 231 253 250 247 243 241 243 241 238 231 233 236 235 233 232 228 227 225 224 224 224 228 225 223
217 220 249 248 243 228 224 223 216 203 233 226 232 235 237 234 229 229 229 227 264 255 242 234 235 235 240 240 238 233 230 232 230 230 233 236 237 240 241 238 236 237 242
263 252 240 240 240 175 136 177 217 223 224 234 228 234 237 230 227 233 223 233 262 261 255 247 240 238 237 236 232 231 231 231 229 233 238 239 240 242 245 247 246 243 239
249 243 237 183 223 231 230 222 221 229 230 229 227 232 232 227 222 224 230 226 235 249 250 254 253 248 238 236 234 232 233 232 232 236 240 241 242 243 140 234 209 207 212
236 236 230 231 214 214 219 228 231 230 232 226 226 235 229 224 216 223 228 250 248 246 251 256 256 253 251 246 241 236 234 230 230 227 230 240 235 204 207 207 167 224 240
162 145 230 234 236 229 239 237 233 230 183 227 230 230 223 227 218 221 237 250 243 247 253 257 253 249 244 242 239 231 226 226 237 235 213 207 211 221 244 310 284 264 257
212 226 181 213 214 220 231 233 223 208 150 228 184 221 216 222 221 235 245 249 251 252 244 238 236 232 229 230 235 230 214 207 207 216 222 265 299 278 256 254 262 315 410
256 215 225 225 205 216 215 201 211 219 218 225 221 217 213 217 233 242 246 250 226 225 226 228 224 222 214 203 203 209 210 218 277 290 269 245 249 245 281 411 404 395 391
269 199 219 241 133 205 202 140 222 215 197 216 212 215 215 237 242 251 221 223 222 219 217 206 195 208 207 210 260 292 282 253 246 244 259 274 415 399 388 382 377 375 374
275 238 211 220 162 205 209 158 216 223 216 210 216 231 243 250 221 221 218 209 200 197 207 213 227 256 280 277 260 250 239 236 264 296 404 398 382 371 367 360 360 373 381
237 236 225 215 219 218 218 219 223 208 217 228 243 248 224 218 207 198 194 200 205 223 239 266 277 260 245 241 238 245 267 354 397 387 381 381 366 360 355 353 358 376 377
210 223 223 225 225 216 223 207 214 224 232 257 215 214 193 190 200 201 206 233 243 264 261 247 240 236 234 249 270 411 401 387 374 365 357 366 356 354 407 417 426 434 437
225 228 227 225 224 213 214 220 231 249 212 194 188 183 198 204 214 236 244 267 253 235 229 232 242 245 270 417 402 386 380 368 358 349 348 358 419 422 430 396 398 412 422

GFSMA_2pvu_pres_060.txt.gz
Presure
125 151 127 180 178 158 175 175 108 190 182 181 187 173 194 122 216 171 199 238 231 214 90 88 91 87 93 91 83 97 95 84 90 95 95 89 197 93 199 157 201 203 199
164 170 175 166 182 177 188 207 190 203 129 168 192 182 165 227 132 235 230 223 219 216 217 95 96 88 87 90 90 100 89 93 90 93 94 196 168 164 192 160 191 195 197
173 175 170 175 173 172 208 188 179 165 186 208 223 235 112 246 242 237 118 113 112 116 118 99 79 95 100 90 101 99 93 90 89 90 96 94 133 187 195 195 184 149 184
172 179 178 174 166 184 211 187 203 187 206 226 218 124 228 201 109 208 218 226 231 228 109 170 87 94 96 226 107 104 81 88 94 96 101 128 230 196 206 204 143 99 103
171 168 166 178 191 197 210 196 206 214 218 228 236 224 231 171 170 107 134 220 115 159 131 143 90 136 96 88 110 105 86 102 95 97 107 226 233 236 239 236 224 103 191
178 176 175 182 202 202 204 208 210 208 209 210 199 212 222 186 110 225 108 127 98 105 104 104 168 132 108 104 104 92 159 97 198 103 102 237 229 224 222 211 213 162 208
171 167 179 192 201 210 204 203 211 200 188 189 212 216 217 100 105 214 219 212 220 172 207 211 223 100 202 102 221 89 101 227 228 103 195 209 217 240 236 229 224 219 225
172 185 191 198 203 191 190 212 203 214 211 225 177 221 212 209 213 202 215 223 216 124 190 226 214 200 222 210 199 188 244 202 106 224 225 215 210 223 225 220 236 239 236
193 196 197 203 185 201 209 211 207 216 210 212 213 229 212 213 205 207 214 215 207 207 158 152 199 97 206 166 87 225 249 241 231 228 224 232 238 210 207 208 219 237 238
196 203 199 201 193 204 194 204 203 200 202 205 210 214 215 219 207 203 216 204 211 215 216 235 221 217 217 228 209 231 247 245 233 179 236 230 227 219 225 246 240 213 233
194 201 209 203 195 193 197 204 202 200 198 202 209 221 218 206 206 209 209 211 220 216 227 239 230 230 229 228 242 240 250 243 235 237 246 229 221 221 227 260 253 252 249
208 203 202 198 198 200 197 196 205 207 204 203 204 217 207 219 203 204 202 214 210 218 239 241 230 224 219 221 228 235 241 241 240 238 235 235 232 235 248 255 260 259 256
204 202 200 204 200 192 197 200 204 201 193 204 215 222 215 213 209 205 207 209 216 246 239 239 233 229 225 221 229 232 233 232 232 231 231 232 231 244 249 244 245 267 266
202 202 203 201 200 196 199 205 200 205 206 218 223 214 211 209 205 210 207 226 249 238 236 233 229 230 220 232 232 235 235 233 232 235 232 221 225 233 244 252 253 250 253
212 205 207 210 204 205 205 204 209 210 224 228 233 230 226 224 220 210 229 250 243 239 228 221 217 231 239 238 237 236 233 232 234 225 226 227 248 256 259 260 261 259 260
209 210 218 214 210 210 163 226 229 225 237 220 225 226 226 226 223 247 245 239 235 226 215 220 235 239 239 230 231 234 234 231 222 223 232 265 261 253 241 234 232 234 235
224 220 213 219 229 155 234 236 240 231 231 227 228 228 205 226 245 242 237 230 224 215 225 226 233 229 215 226 228 239 239 232 229 261 253 239 230 230 229 225 224 224 223
253 250 249 251 246 247 242 238 227 216 214 221 244 227 240 240 231 227 235 217 216 231 218 228 224 213 227 230 239 228 226 249 247 231 231 229 224 221 217 213 207 202 201
269 267 258 204 245 233 230 231 238 246 243 242 245 256 236 226 224 223 222 221 234 216 214 217 212 219 228 236 226 235 244 219 224 223 215 208 202 210 217 269 260 251 250
283 286 265 258 255 249 210 125 247 239 235 222 213 211 213 225 229 223 237 238 221 223 208 212 221 227 230 227 244 231 215 204 199 201 231 249 260 251 244 244 235 250 258
277 230 175 282 270 263 245 126 123 171 257 209 218 205 177 200 212 216 205 202 206 223 230 225 235 229 237 235 199 196 194 221 239 256 250 232 230 245 257 269 292 337 400
347 266 254 252 250 259 243 238 237 146 233 236 240 249 252 245 209 212 214 206 232 231 234 235 233 232 192 195 202 224 253 252 223 220 235 244 259 271 335 420 420 415 396
302 306 315 315 289 260 252 261 237 226 256 245 245 254 251 243 234 235 248 244 233 231 232 223 190 198 208 225 256 257 224 229 238 250 262 274 439 424 409 391 371 370 366
301 297 292 285 273 266 263 183 259 250 241 242 209 241 245 244 241 235 228 227 232 200 202 205 215 226 250 238 226 228 242 253 257 290 424 416 386 385 386 381 373 374 378
256 249 238 245 243 241 246 265 245 247 249 245 247 241 229 227 227 225 225 185 193 207 214 228 256 223 225 228 241 250 256 275 432 400 428 427 433 431 507 430 419 418 417
243 239 239 237 238 248 239 228 235 245 225 221 225 224 226 223 189 186 199 207 220 250 253 208 227 229 243 249 255 273 433 397 424 407 404 398 593 568 564 495 263 454 442

GFSMA_2pvu_pres_066.txt.gz
Presure
141 139 143 148 129 158 169 168 168 163 162 179 151 171 169 186 184 187 173 174 179 222 192 224 221 228 184 218 219 226 230 143 84 87 86 90 101 94 94 93 95 90 94
148 147 144 153 154 163 162 166 167 159 155 158 166 176 183 174 183 162 175 180 197 211 197 215 205 111 201 226 218 218 214 151 116 155 90 88 89 139 109 103 180 97 93
151 151 149 172 171 155 164 162 166 171 179 178 183 174 164 171 212 202 177 202 114 200 201 215 214 213 216 218 225 214 214 117 218 118 205 88 180 104 103 101 111 240 92
157 153 161 167 89 157 178 170 169 181 182 174 158 170 182 177 209 201 197 198 201 215 210 195 212 220 212 221 212 215 218 214 212 219 114 224 206 87 107 124 205 184 227
162 166 169 177 180 189 175 175 181 178 157 165 166 170 178 207 205 189 196 198 212 204 202 210 199 212 167 207 206 234 160 204 111 111 205 85 158 237 180 173 192 172 170
187 182 183 185 187 199 193 195 187 163 169 169 188 189 208 200 196 200 202 211 203 208 206 198 210 213 212 210 217 204 235 229 189 210 210 224 187 227 252 243 194 98 237
187 192 189 173 181 178 182 178 174 173 173 191 208 210 195 203 202 195 207 201 196 204 200 204 203 206 209 218 208 229 244 233 228 222 211 217 173 229 252 96 239 238 246
176 172 166 174 173 173 173 174 174 187 193 203 206 201 199 205 204 201 195 200 200 202 201 202 213 208 214 211 215 238 238 241 228 217 225 217 218 244 246 239 231 234 144
172 170 171 171 170 174 182 180 193 203 205 206 202 200 199 196 197 193 198 197 198 195 201 202 205 197 214 209 224 224 236 239 240 242 224 218 224 249 242 238 237 234 223
178 179 172 180 180 182 206 202 205 208 202 203 199 199 194 203 194 195 199 201 193 195 197 199 199 213 208 213 220 228 234 241 238 237 215 204 228 246 240 232 233 232 229
183 190 210 208 220 205 205 211 210 211 205 201 203 204 199 199 202 196 203 191 202 203 201 210 205 204 205 220 219 231 244 234 239 237 232 220 252 244 239 235 226 223 233
218 212 216 215 209 210 203 210 201 200 184 193 192 196 200 200 198 196 205 208 199 199 205 205 202 203 222 219 229 237 232 238 235 230 231 236 250 240 235 223 220 235 241
213 214 213 213 213 209 212 206 203 202 202 204 199 195 200 195 196 206 205 208 207 193 198 201 204 219 229 218 229 238 236 232 219 218 228 146 245 237 230 217 227 229 237
214 217 223 217 205 206 212 211 206 204 193 189 200 199 202 203 212 197 189 194 225 203 209 204 219 229 219 227 237 244 228 226 237 240 234 249 239 241 234 225 233 226 226
189 208 121 210 214 213 212 213 211 212 212 212 145 199 198 192 198 198 195 177 220 209 218 226 216 224 234 238 241 231 244 246 246 244 248 244 239 238 229 229 236 223 214
224 225 223 155 222 220 168 168 208 207 214 206 207 206 205 207 205 205 210 222 217 218 220 221 229 229 240 242 234 239 243 244 253 261 255 214 220 225 226 231 224 222 239
101 222 230 225 223 223 223 221 219 218 222 221 214 214 215 216 222 190 221 219 220 225 225 222 234 242 234 229 227 246 242 237 215 207 221 228 228 218 220 219 230 230 257
242 250 249 258 260 255 251 250 250 248 241 240 239 238 233 229 229 229 227 228 227 230 235 237 237 229 228 253 246 244 255 243 242 241 239 242 245 256 258 254 257 237 194
295 294 295 293 288 297 296 284 268 269 262 254 239 234 239 238 235 239 243 244 237 233 124 128 229 222 251 249 241 238 242 237 235 255 260 264 263 259 245 242 236 216 222
368 358 274 287 316 320 309 293 276 271 253 253 258 262 258 243 239 237 237 228 223 232 238 258 252 221 244 237 239 240 243 253 253 254 245 237 235 226 224 240 246 214 230
354 350 343 379 438 418 389 405 360 328 270 252 251 253 243 243 243 239 247 250 265 259 251 246 245 240 238 241 248 263 257 240 232 235 225 212 246 259 218 223 234 229 247
302 306 310 295 321 337 402 362 356 336 305 286 285 254 253 251 251 236 256 259 253 253 258 248 247 243 246 259 237 233 226 203 210 240 246 219 218 220 234 238 258 271 286
291 296 293 289 281 283 292 295 304 316 320 311 307 286 292 242 250 243 245 252 252 258 267 246 275 266 231 220 205 218 245 241 233 229 218 221 227 198 257 272 305 397 390
284 282 282 285 286 286 282 281 278 280 280 279 276 264 255 256 269 268 279 253 232 229 228 225 218 205 222 234 234 234 227 233 218 225 239 247 260 271 392 390 378 367 363
245 252 250 256 241 245 247 246 248 255 257 268 275 253 242 233 230 229 227 223 219 215 198 224 230 235 235 233 230 238 218 228 237 250 261 388 391 378 357 355 357 400 434
237 235 234 232 235 232 236 236 233 232 230 229 227 224 221 218 214 214 218 196 229 229 232 232 192 230 221 237 223 228 243 251 266 360 354 365 356 349 338 387 406 370 355